Location: Fauquembergues
(50.6005°N, 2.0987°E)
Time: 04:25:35
(UTC+00:00)

Cosmos 1833 Rocket - Pass Details

Date: 14 July 2020
Orbit: 832 x 840 km, 71.0° (Epoch: 06 August)

Event Time Altitude Azimuth Distance (km) Brightness Sun altitude
Exits shadow 00:45:02 12° 140° (SE) 2,274 4.6 -17.0°
Maximum altitude 00:48:20 20° 100° (E) 1,838 4.5 -16.9°
Drops below altitude 10° 00:52:17 10° 55° (NE) 2,453 5.8 -16.8°
Sets 00:55:20 0° 40° (NE) 3,393 7.0 -16.6°
